SL-8 DEB, 39691

Orbit data source: Space-Track

SL-8 DEB, 39691 is space debris in LEO originally from a launch on Tue, 12 Feb 1991 UTC launched from the Plesetsk Missile And Space Complex (PKMTR). Debris objects in space refer to the collection of defunct objects orbiting the Earth. Examples of debris include non-operational satellites, rocket bodies, and fragments generated from explosions, collisions, or faulty payload assembly.

Loading next visibility...
Identifier
39691, 1991-009DE
Orbit
LEO
Country
Flag of CISCIS
Related business
Manufacturer
Unknown
Mission
Spacecraft
Bus & Motor
Unknown
Mass
Unknown
Launch date (UTC)
1991-02-12 (35 years ago)
Launch vehicle
Unknown
Launch site
Plesetsk Missile And Space Complex (PKMTR)
Object type
Payload
Rocket body
Debris
Shape & HBR
Unknown shape, 1.1 m
Radar Cross Section
Medium (>0.1 m² and <1 m²)

Expand to show TLE details & history
Last TLE update: 3 days ago

TLE from 3 days ago
0 SL-8 DEB
1 39691U 91009DE  26170.54151726  .00000451  00000-0  42171-2 0  9991
2 39691  74.0556 206.0345 0139377 268.7631  89.7434 12.22853735520370
Epoch: 2026-06-19T12:59Z
TLE epoch observation values (Epoch: 2026-06-19T12:59:47.091Z)
Latitude
-0.00006°
Longitude
103.31926°
Altitude
1,583.533 km
Speed
7.077 km/s
True Right ascension
13h 44m 08s
True Declination
0° 00' 00"
Sunlit
Object was in daylight at epoch
Visualization orbit readout
Latitude
Unknown
Longitude
Unknown
Altitude
Unknown
Speed
Unknown
Apparent Right ascension
Unknown
Apparent Declination
Unknown
Sunlit
N/A
Visualization observer readout
Local Sidereal Time
02:13:13
Azimuth
Unknown
Elevation
Unknown
Doppler factor
Unknown
Orbital elements
Apogee altitude
1,688.89 km
Perigee altitude
1,467.11 km
Semi-major axis
7,956.137 km
Eccentricity
0.01394
Inclination
74.0556°
RAAN
206.0345°
Arg. of periapsis
268.7631°
True anomaly
91.34044°
Mean anomaly
89.7434°
Eccentric anomaly
90.54194°
Mean motion
3.05837 °/min
Orbital period
117.71 mins
BSTAR
0.0042171
Loading maneuver chart data...
Computing Atmospheric mass density...
Loading historical data...
Loading historical data...
Loading historical data...
Loading historical data...
Loading historical data...
Loading historical data...
Loading historical data...

Documentation

Showing up to 5 results
|